Find Starlink 35516

NORAD ID: 65918 Int'l Des: 2025-225 Owner: SPXS Country: US Constellation: starlink operational
LEOCIRCULAR

現在のビュー

3D地球を読み込み中...

About Starlink 35516

Starlink 35516 (NORAD 65918) is a starlink constellation satellite (v2 mini) launched Oct 8, 2025 by SPXS of US. It operates in LEO, CIRCULAR orbit with a mass of 575.00 kg.

次回通過

Passes for default location (London). Set your location on the main map for personalized predictions.

高度履歴

Loading altitude history...

軌道要素

1 65918U 25225J 26265.49372291 .00017833 00000-0 53762-3 0 9991
2 65918 53.1598 330.5574 0001138 128.8811 231.2293 15.34401898 54555
Epoch: Sep 22, 2026 • Age: 16 hours

現在のステータス

高度 465.9 km
遠地点 / 近地点 N/A
速度 7.64 km/s
衛星直下点 39.18°N, 52.76°W
打ち上げ日 Oct 8, 2025
運用期間 0.9 years
タイプ internet

技術仕様

分類 Payload
質量 575.00 kg
乾燥質量 530.00 kg
長さ 0.30 m
スパン 29.00 m
形状 ? Box + pan
製造者 SPXS
バスタイプ Starlink V2MO
フェーズステータス In Orbit
所有者/国 SPXS/US

Most Searched